Weather History for Point Pleasant, WV

Change the Weather History Date:

Tuesday, February 19, 2013

  Actual Average (KHTS) Record (KHTS)
Temperature  
Mean Temperature 42 °F 38 °F  
Max Temperature 51 °F 48 °F 76 °F (1939)
Min Temperature 32 °F 29 °F 2 °F (1936)
Degree Days  
Heating Degree Days 24 27  
Month to date heating degree days 547  
Since 1 July heating degree days 3271  
Cooling Degree Days 0 0  
Month to date cooling degree days 0  
Year to date cooling degree days 0  
Moisture  
Dew Point 29 °F    
Average Humidity 62    
Maximum Humidity 87    
Minimum Humidity 38    
Precipitation  
Precipitation 0.00 in 0.12 in 1.14 in (1914)
Month to date precipitation 2.04  
Year to date precipitation 5.01  
Snow  
Snow 0.00 in - - ()
Month to date snowfall  
Since 1 September snowfall  
Snow Depth -    
Sea Level Pressure  
Sea Level Pressure 29.89 in    
Wind  
Wind Speed 10 mph (WSW)    
Max Wind Speed 20 mph    
Max Gust Speed 37 mph    
Visibility 10 miles    
Events Rain    
T = Trace of Precipitation, MM = Missing Value Source: NWS Daily Summary

Daily Weather History Graph

Daily Weather History Graph

Search for Another Location

Airport:

Trip Planner

Search our weather history database for the weather conditions in past years. The results will help you decide how hot, cold, wet, or windy it might be!

Date:

Astronomy

Feb. 19, 2013 Rise Set
Actual Time 7:14 AM EST 6:10 PM EST
Civil Twilight 6:47 AM EST 6:37 PM EST
Nautical Twilight 6:16 AM EST 7:08 PM EST
Astronomical Twilight 5:45 AM EST 7:39 PM EST
Moon 12:42 PM EST (2/19) 2:43 AM EST (2/19)
Length of Visible Light 11h 50m
Length of Day
10h 56m
Waxing Gibbous, 67% of the Moon is Illuminated
Feb 19
Waxing Gibbous
Feb 25
Full
Mar 4
Last Quarter
Mar 11
New
Mar 19
First Quarter

Hourly Weather History & Observations

Time (EST) Temp. Windchill Dew Point Humidity Pressure Visibility Wind Dir Wind Speed Gust Speed Precip Events Conditions
12:15 AM 51.8 °F - 26.6 °F 38% 29.85 in 10.0 mi South 4.6 mph - N/A   Clear
12:35 AM 51.8 °F - 26.6 °F 38% 29.85 in 10.0 mi South 6.9 mph - N/A   Scattered Clouds
12:55 AM 51.8 °F - 26.6 °F 38% 29.86 in 10.0 mi South 4.6 mph - N/A   Mostly Cloudy
1:15 AM 51.8 °F - 26.6 °F 38% 29.86 in 10.0 mi SE 5.8 mph - N/A   Scattered Clouds
1:35 AM 51.8 °F - 26.6 °F 38% 29.85 in 10.0 mi South 5.8 mph - N/A   Mostly Cloudy
1:55 AM 51.8 °F - 26.6 °F 38% 29.86 in 10.0 mi SW 9.2 mph - N/A   Mostly Cloudy
2:15 AM 50.0 °F - 33.8 °F 54% 29.86 in 10.0 mi SW 16.1 mph 36.8 mph N/A Rain Light Rain
2:35 AM 48.2 °F - 33.8 °F 58% 29.85 in 10.0 mi SW 17.3 mph 32.2 mph N/A Rain Light Rain
2:55 AM 46.4 °F 40.7 °F 35.6 °F 66% 29.84 in 10.0 mi SW 12.7 mph 29.9 mph N/A Rain Light Rain
3:15 AM 46.4 °F 42.4 °F 35.6 °F 66% 29.82 in 10.0 mi SW 8.1 mph 17.3 mph N/A Rain Light Rain
3:35 AM 46.4 °F 40.7 °F 35.6 °F 66% 29.81 in 10.0 mi SSW 12.7 mph 20.7 mph N/A Rain Light Rain
3:55 AM 46.4 °F 41.5 °F 35.6 °F 66% 29.80 in 10.0 mi South 10.4 mph - N/A   Mostly Cloudy
4:15 AM 46.4 °F 41.1 °F 35.6 °F 66% 29.80 in 10.0 mi SSW 11.5 mph 17.3 mph N/A Rain Light Rain
4:35 AM 46.4 °F 40.7 °F 37.4 °F 71% 29.79 in 10.0 mi SSW 12.7 mph 21.9 mph N/A   Mostly Cloudy
4:55 AM 46.4 °F 41.1 °F 37.4 °F 71% 29.80 in 10.0 mi South 11.5 mph 17.3 mph N/A   Mostly Cloudy
5:15 AM 44.6 °F 39.7 °F 37.4 °F 76% 29.79 in 10.0 mi SSW 9.2 mph - N/A   Mostly Cloudy
5:35 AM 44.6 °F 39.7 °F 37.4 °F 76% 29.79 in 10.0 mi SSW 9.2 mph - N/A   Mostly Cloudy
5:55 AM 46.4 °F 41.1 °F 37.4 °F 71% 29.78 in 10.0 mi SSW 11.5 mph 17.3 mph N/A Rain Light Rain
6:15 AM 46.4 °F 41.9 °F 37.4 °F 71% 29.78 in 10.0 mi SW 9.2 mph 18.4 mph N/A Rain Light Rain
6:55 AM 46.4 °F 41.5 °F 37.4 °F 71% 29.77 in 10.0 mi SSW 10.4 mph 17.3 mph N/A   Mostly Cloudy
7:35 AM 46.4 °F 40.7 °F 37.4 °F 71% 29.77 in 10.0 mi SW 12.7 mph 20.7 mph N/A   Overcast
7:55 AM 46.4 °F 39.0 °F 37.4 °F 71% 29.78 in 10.0 mi SW 19.6 mph 27.6 mph N/A   Overcast
8:15 AM 46.4 °F 39.8 °F 37.4 °F 71% 29.78 in 10.0 mi SW 16.1 mph 28.8 mph N/A   Overcast
8:35 AM 46.4 °F 40.4 °F 37.4 °F 71% 29.78 in 10.0 mi SW 13.8 mph 21.9 mph N/A   Overcast
8:55 AM 46.4 °F 40.1 °F 37.4 °F 71% 29.78 in 10.0 mi SW 15.0 mph 26.5 mph N/A   Overcast
9:15 AM 44.6 °F 37.2 °F 39.2 °F 81% 29.79 in 10.0 mi SW 17.3 mph 23.0 mph N/A Rain Light Rain
9:35 AM 44.6 °F 37.4 °F 41.0 °F 87% 29.80 in 7.0 mi WSW 16.1 mph 25.3 mph N/A Rain Light Rain
9:55 AM 42.8 °F 36.2 °F 39.2 °F 87% 29.81 in 10.0 mi WSW 12.7 mph 19.6 mph N/A Rain Light Rain
10:35 AM 41.0 °F 35.2 °F 35.6 °F 81% 29.84 in 10.0 mi West 9.2 mph 19.6 mph N/A   Overcast
10:55 AM 41.0 °F 34.7 °F 35.6 °F 81% 29.84 in 10.0 mi West 10.4 mph 20.7 mph N/A   Overcast
11:15 AM 41.0 °F 32.8 °F 33.8 °F 76% 29.84 in 10.0 mi WSW 16.1 mph 24.2 mph N/A   Mostly Cloudy
11:35 AM 41.0 °F 37.1 °F 33.8 °F 76% 29.85 in 7.0 mi West 5.8 mph - N/A   Mostly Cloudy
11:55 AM 41.0 °F 35.2 °F 33.8 °F 76% 29.84 in 10.0 mi West 9.2 mph 16.1 mph N/A   Mostly Cloudy
12:15 PM 44.6 °F 39.7 °F 33.8 °F 66% 29.84 in 10.0 mi West 9.2 mph 18.4 mph N/A   Scattered Clouds
12:35 PM 42.8 °F 35.4 °F 32.0 °F 66% 29.85 in 10.0 mi WSW 15.0 mph 25.3 mph N/A   Scattered Clouds
12:55 PM 42.8 °F 35.1 °F 30.2 °F 61% 29.85 in 10.0 mi WSW 16.1 mph 26.5 mph N/A   Scattered Clouds
1:15 PM 42.8 °F 37.5 °F 28.4 °F 57% 29.85 in 10.0 mi West 9.2 mph 21.9 mph N/A   Scattered Clouds
1:35 PM 42.8 °F 35.8 °F 28.4 °F 57% 29.86 in 10.0 mi West 13.8 mph 26.5 mph N/A   Scattered Clouds
1:55 PM 42.8 °F 36.2 °F 28.4 °F 57% 29.86 in 10.0 mi WSW 12.7 mph 21.9 mph N/A   Scattered Clouds
2:15 PM 41.0 °F 33.1 °F 26.6 °F 57% 29.87 in 10.0 mi WSW 15.0 mph 24.2 mph N/A   Scattered Clouds
2:35 PM 42.8 °F 36.6 °F 26.6 °F 53% 29.88 in 10.0 mi West 11.5 mph 23.0 mph N/A   Scattered Clouds
2:55 PM 42.8 °F 36.6 °F 26.6 °F 53% 29.89 in 10.0 mi West 11.5 mph 16.1 mph N/A   Scattered Clouds
3:15 PM 41.0 °F 35.8 °F 24.8 °F 53% 29.89 in 10.0 mi West 8.1 mph 20.7 mph N/A   Scattered Clouds
3:35 PM 41.0 °F 33.1 °F 24.8 °F 53% 29.89 in 10.0 mi WSW 15.0 mph 21.9 mph N/A   Clear
3:55 PM 41.0 °F 33.5 °F 24.8 °F 53% 29.90 in 10.0 mi West 13.8 mph 21.9 mph N/A   Scattered Clouds
4:15 PM 39.2 °F 32.0 °F 26.6 °F 61% 29.91 in 10.0 mi West 11.5 mph 19.6 mph N/A   Scattered Clouds
4:35 PM 39.2 °F 32.0 °F 23.0 °F 52% 29.92 in 10.0 mi West 11.5 mph 17.3 mph N/A   Scattered Clouds
4:55 PM 39.2 °F 33.0 °F 23.0 °F 52% 29.93 in 10.0 mi West 9.2 mph - N/A   Scattered Clouds
5:15 PM 37.4 °F 30.8 °F 23.0 °F 56% 29.94 in 10.0 mi West 9.2 mph 24.2 mph N/A   Scattered Clouds
5:35 PM 37.4 °F 30.8 °F 23.0 °F 56% 29.95 in 10.0 mi WSW 9.2 mph 17.3 mph N/A   Scattered Clouds
5:55 PM 37.4 °F 32.1 °F 23.0 °F 56% 29.96 in 10.0 mi West 6.9 mph - N/A   Scattered Clouds
6:15 PM 37.4 °F 30.3 °F 23.0 °F 56% 29.97 in 10.0 mi WSW 10.4 mph 17.3 mph N/A   Scattered Clouds
7:35 PM 33.8 °F 25.3 °F 19.4 °F 56% 30.02 in 10.0 mi West 11.5 mph 20.7 mph N/A   Clear
7:55 PM 33.8 °F 27.7 °F 19.4 °F 56% 30.03 in 10.0 mi WNW 6.9 mph - N/A   Scattered Clouds
8:15 PM 32.0 °F 24.2 °F 19.4 °F 60% 30.04 in 10.0 mi WNW 9.2 mph 17.3 mph N/A   Clear
8:35 PM 32.0 °F 25.6 °F 21.2 °F 64% 30.04 in 10.0 mi West 6.9 mph - N/A   Scattered Clouds
8:55 PM 32.0 °F 24.8 °F 21.2 °F 64% 30.04 in 10.0 mi West 8.1 mph - N/A   Scattered Clouds
9:15 PM 32.0 °F 25.6 °F 21.2 °F 64% 30.04 in 10.0 mi West 6.9 mph - N/A   Scattered Clouds
9:35 PM 32.0 °F 23.6 °F 19.4 °F 60% 30.05 in 10.0 mi West 10.4 mph 19.6 mph N/A   Scattered Clouds
9:55 PM 32.0 °F 24.8 °F 19.4 °F 60% 30.06 in 10.0 mi West 8.1 mph - N/A   Mostly Cloudy
10:15 PM 32.0 °F 24.2 °F 21.2 °F 64% 30.07 in 10.0 mi West 9.2 mph 17.3 mph N/A   Mostly Cloudy
10:35 PM 32.0 °F 23.6 °F 21.2 °F 64% 30.07 in 10.0 mi West 10.4 mph - N/A   Scattered Clouds
10:55 PM 32.0 °F 26.4 °F 21.2 °F 64% 30.08 in 10.0 mi West 5.8 mph 17.3 mph N/A   Scattered Clouds
11:15 PM 32.0 °F 27.5 °F 21.2 °F 64% 30.08 in 10.0 mi WNW 4.6 mph - N/A   Scattered Clouds
11:35 PM 32.0 °F 25.6 °F 21.2 °F 64% 30.08 in 10.0 mi West 6.9 mph - N/A   Mostly Cloudy
11:55 PM 32.0 °F 25.6 °F 21.2 °F 64% 30.09 in 10.0 mi West 6.9 mph 17.3 mph N/A   Mostly Cloudy